DD5ZT-13 Weather Reports


time (UTC)temp
C
wind
direction
speed
KPH
gust
KPH
rain 1hr
cm
rain 24hr
cm
rain mn
cm
humidity
%
barometer
mb
20260507090255 20 0.0 0.0 0.00 0.00 0.00 47 1017.5
20260507085229 19 0.0 0.0 0.00 0.00 0.00 49 1017.4
20260507084436 18 0.0 0.0 0.00 0.00 0.00 50 1017.4
20260507084204 18 0.0 0.0 0.00 0.00 0.00 50 1017.4
20260507083234 18 0.0 0.0 0.00 0.00 0.00 51 1017.3
20260507083139 18 0.0 0.0 0.00 0.00 0.00 51 1017.3
20260507082322 18 0.0 0.0 0.00 0.00 0.00 52 1017.3
20260507082114 18 0.0 0.0 0.00 0.00 0.00 52 1017.3
20260507081347 18 0.0 0.0 0.00 0.00 0.00 53 1017.2
20260507081048 18 0.0 0.0 0.00 0.00 0.00 53 1017.2
20260507080059 17 0.0 0.0 0.00 0.00 0.00 54 1017.3
20260507080023 17 0.0 0.0 0.00 0.00 0.00 54 1017.3
20260507075321 17 0.0 0.0 0.00 0.00 0.00 55 1017.0
20260507074958 17 0.0 0.0 0.00 0.00 0.00 55 1017.0
20260507074347 17 0.0 0.0 0.00 0.00 0.00 56 1017.0
20260507073932 17 0.0 0.0 0.00 0.00 0.00 56 1017.0
20260507072932 17 0.0 0.0 0.00 0.00 0.00 57 1017.0
20260507072907 17 0.0 0.0 0.00 0.00 0.00 57 1017.0
20260507071847 16 0.0 0.0 0.00 0.00 0.00 58 1016.9
20260507071842 16 0.0 0.0 0.00 0.00 0.00 58 1016.9
20260507070817 16 0.0 0.0 0.00 0.00 0.00 58 1016.9
20260507065847 16 0.0 0.0 0.00 0.00 0.00 60 1016.9
20260507065752 16 0.0 0.0 0.00 0.00 0.00 60 1016.9
20260507064734 16 0.0 0.0 0.00 0.00 0.00 60 1016.8
20260507064727 16 0.0 0.0 0.00 0.00 0.00 60 1016.8
20260507063821 16 0.0 0.0 0.00 0.00 0.00 60 1016.8
20260507063701 16 0.0 0.0 0.00 0.00 0.00 60 1016.8
20260507062847 16 0.0 0.0 0.00 0.00 0.00 60 1016.6
20260507062636 16 0.0 0.0 0.00 0.00 0.00 60 1016.6
20260507061627 16 0.0 0.0 0.00 0.00 0.00 60 1016.5
20260507061611 16 0.0 0.0 0.00 0.00 0.00 60 1016.5
20260507060821 16 0.0 0.0 0.00 0.00 0.00 61 1016.4
20260507060546 16 0.0 0.0 0.00 0.00 0.00 61 1016.4
20260507055551 16 0.0 0.0 0.00 0.00 0.00 61 1016.2
20260507055521 16 0.0 0.0 0.00 0.00 0.00 61 1016.2
20260507054503 16 0.0 0.0 0.00 0.00 0.00 61 1016.2
20260507054456 16 0.0 0.0 0.00 0.00 0.00 61 1016.2
20260507053521 16 0.0 0.0 0.00 0.00 0.00 61 1016.1
20260507053431 16 0.0 0.0 0.00 0.00 0.00 61 1016.1
20260507052406 16 0.0 0.0 0.00 0.00 0.00 61 1016.0
20260507051347 16 0.0 0.0 0.00 0.00 0.00 62 1015.9
20260507051340 16 0.0 0.0 0.00 0.00 0.00 62 1015.9
20260507050347 16 0.0 0.0 0.00 0.00 0.00 62 1015.8
20260507050315 16 0.0 0.0 0.00 0.00 0.00 62 1015.8
20260507045250 16 0.0 0.0 0.00 0.00 0.00 62 1015.7
20260507044315 16 0.0 0.0 0.00 0.00 0.00 62 1015.5
20260507044225 16 0.0 0.0 0.00 0.00 0.00 62 1015.5
20260507043234 15 0.0 0.0 0.00 0.00 0.00 62 1015.4
20260507043200 15 0.0 0.0 0.00 0.00 0.00 62 1015.4
20260507042135 15 0.0 0.0 0.00 0.00 0.00 62 1015.3
20260507041307 15 0.0 0.0 0.00 0.00 0.00 63 1015.4
20260507041110 15 0.0 0.0 0.00 0.00 0.00 63 1015.4
20260507040127 15 0.0 0.0 0.00 0.00 0.00 63 1015.3
20260507040044 15 0.0 0.0 0.00 0.00 0.00 63 1015.3
20260507035019 15 0.0 0.0 0.00 0.00 0.00 63 1015.4
20260507034347 15 0.0 0.0 0.00 0.00 0.00 64 1015.3
20260507033954 15 0.0 0.0 0.00 0.00 0.00 64 1015.3
20260507032929 15 0.0 0.0 0.00 0.00 0.00 65 1015.2
20260507031904 12 0.0 0.0 0.00 0.00 0.00 70 1015.2
20260507031023 12 0.0 0.0 0.00 0.00 0.00 71 1015.0
20260507030839 12 0.0 0.0 0.00 0.00 0.00 71 1015.0
20260507025918 12 0.0 0.0 0.00 0.00 0.00 69 1014.9
20260507025814 12 0.0 0.0 0.00 0.00 0.00 69 1014.9
20260507024749 12 0.0 0.0 0.00 0.00 0.00 73 1014.9
20260507023723 12 0.0 0.0 0.00 0.00 0.00 72 1014.8
20260507022910 12 0.0 0.0 0.00 0.00 0.00 73 1014.9
20260507022658 12 0.0 0.0 0.00 0.00 0.00 73 1014.9
20260507021633 12 0.0 0.0 0.00 0.00 0.00 72 1014.9
20260507020716 12 0.0 0.0 0.00 0.00 0.00 73 1014.9
20260507020608 12 0.0 0.0 0.00 0.00 0.00 73 1014.9
20260507015946 12 0.0 0.0 0.00 0.00 0.00 74 1014.7
20260507015543 12 0.0 0.0 0.00 0.00 0.00 74 1014.7
20260507014518 12 0.0 0.0 0.00 0.00 0.00 72 1014.5
20260507013523 12 0.0 0.0 0.00 0.00 0.00 69 1014.5
20260507013453 12 0.0 0.0 0.00 0.00 0.00 69 1014.5
20260507012523 12 0.0 0.0 0.00 0.00 0.00 73 1014.5
20260507012427 12 0.0 0.0 0.00 0.00 0.00 73 1014.5
20260507011402 13 0.0 0.0 0.00 0.00 0.00 69 1014.5
20260507010338 12 0.0 0.0 0.00 0.00 0.00 72 1014.4
20260507005319 12 0.0 0.0 0.00 0.00 0.00 72 1014.3
20260507005312 12 0.0 0.0 0.00 0.00 0.00 72 1014.3
20260507004441 12 0.0 0.0 0.00 0.00 0.00 70 1014.2
20260507004247 12 0.0 0.0 0.00 0.00 0.00 70 1014.2
20260507003222 12 0.0 0.0 0.00 0.00 0.00 73 1014.3
20260507002318 12 0.0 0.0 0.00 0.00 0.00 75 1014.3
20260507002157 12 0.0 0.0 0.00 0.00 0.00 75 1014.3
20260507001131 12 0.0 0.0 0.00 0.00 0.00 71 1014.2
20260507000126 12 0.0 0.0 0.00 0.00 0.00 72 1014.0
20260507000106 12 0.0 0.0 0.00 0.00 0.00 72 1014.0
20260506235140 12 0.0 0.0 0.00 0.00 0.00 70 1014.0
20260506235041 12 0.0 0.0 0.00 0.00 0.00 70 1014.0
20260506234023 12 0.0 0.0 0.00 0.00 0.00 70 1014.1
20260506234016 12 0.0 0.0 0.00 0.00 0.00 70 1014.1
20260506233023 13 0.0 0.0 0.00 0.00 0.00 69 1014.2
20260506232951 13 0.0 0.0 0.00 0.00 0.00 69 1014.2
20260506231926 12 0.0 0.0 0.00 0.00 0.00 70 1014.1
20260506231023 12 0.0 0.0 0.00 0.00 0.00 71 1014.1
20260506230901 12 0.0 0.0 0.00 0.00 0.00 71 1014.1
20260506225932 13 0.0 0.0 0.00 0.00 0.00 69 1014.0
20260506225836 13 0.0 0.0 0.00 0.00 0.00 69 1014.0
20260506224810 13 0.0 0.0 0.00 0.00 0.00 69 1013.9
20260506223816 13 0.0 0.0 0.00 0.00 0.00 67 1013.8
20260506223745 13 0.0 0.0 0.00 0.00 0.00 67 1013.8
20260506222930 13 0.0 0.0 0.00 0.00 0.00 66 1013.7
20260506222720 13 0.0 0.0 0.00 0.00 0.00 66 1013.7
20260506221734 13 0.0 0.0 0.00 0.00 0.00 66 1013.6
20260506221655 13 0.0 0.0 0.00 0.00 0.00 66 1013.6
20260506220630 15 0.0 0.0 0.00 0.00 0.00 64 1013.5
20260506215928 17 0.0 0.0 0.00 0.00 0.00 57 1013.6
20260506215605 17 0.0 0.0 0.00 0.00 0.00 57 1013.6
20260506214626 17 0.0 0.0 0.00 0.00 0.00 57 1013.5
20260506214540 17 0.0 0.0 0.00 0.00 0.00 57 1013.5
20260506213523 17 0.0 0.0 0.00 0.00 0.00 57 1013.3
20260506213514 17 0.0 0.0 0.00 0.00 0.00 57 1013.3
20260506212449 17 0.0 0.0 0.00 0.00 0.00 57 1013.2
20260506211523 17 0.0 0.0 0.00 0.00 0.00 57 1013.4
20260506211424 17 0.0 0.0 0.00 0.00 0.00 57 1013.4
20260506210407 17 0.0 0.0 0.00 0.00 0.00 57 1013.2
20260506210359 17 0.0 0.0 0.00 0.00 0.00 57 1013.2
20260506205334 17 0.0 0.0 0.00 0.00 0.00 57 1013.2
20260506204423 17 0.0 0.0 0.00 0.00 0.00 57 1013.1
20260506204309 17 0.0 0.0 0.00 0.00 0.00 57 1013.1
20260506203404 17 0.0 0.0 0.00 0.00 0.00 57 1013.1
20260506203244 17 0.0 0.0 0.00 0.00 0.00 57 1013.1
20260506202219 17 0.0 0.0 0.00 0.00 0.00 57 1013.0
20260506201153 17 0.0 0.0 0.00 0.00 0.00 57 1012.9
20260506195103 17 0.0 0.0 0.00 0.00 0.00 57 1012.8
20260506194038 17 0.0 0.0 0.00 0.00 0.00 57 1012.9
20260506192023 17 0.0 0.0 0.00 0.00 0.00 57 1012.7
20260506191948 17 0.0 0.0 0.00 0.00 0.00 57 1012.7
20260506190931 17 0.0 0.0 0.00 0.00 0.00 57 1012.7
20260506190923 17 0.0 0.0 0.00 0.00 0.00 57 1012.7
20260506185857 17 0.0 0.0 0.00 0.00 0.00 57 1012.6
20260506184849 17 0.0 0.0 0.00 0.00 0.00 56 1012.4
20260506184832 17 0.0 0.0 0.00 0.00 0.00 56 1012.4
20260506183815 17 0.0 0.0 0.00 0.00 0.00 57 1012.2
20260506183807 17 0.0 0.0 0.00 0.00 0.00 57 1012.2
20260506182805 18 0.0 0.0 0.00 0.00 0.00 57 1012.2
20260506182742 18 0.0 0.0 0.00 0.00 0.00 57 1012.2
20260506181717 18 0.0 0.0 0.00 0.00 0.00 57 1012.1
20260506180815 18 0.0 0.0 0.00 0.00 0.00 57 1012.0
20260506180652 18 0.0 0.0 0.00 0.00 0.00 57 1012.0
20260506175627 18 0.0 0.0 0.00 0.00 0.00 57 1012.0
20260506174602 18 0.0 0.0 0.00 0.00 0.00 57 1011.9
20260506173814 18 0.0 0.0 0.00 0.00 0.00 57 1011.8
20260506173536 18 0.0 0.0 0.00 0.00 0.00 57 1011.8
20260506172523 18 0.0 0.0 0.00 0.00 0.00 56 1011.7
20260506172511 18 0.0 0.0 0.00 0.00 0.00 56 1011.7
20260506171509 18 0.0 0.0 0.00 0.00 0.00 56 1011.6
20260506171446 18 0.0 0.0 0.00 0.00 0.00 56 1011.6
20260506170523 18 0.0 0.0 0.00 0.00 0.00 56 1011.4
20260506170421 18 0.0 0.0 0.00 0.00 0.00 56 1011.4
20260506165523 18 0.0 0.0 0.00 0.00 0.00 56 1011.4
20260506165356 18 0.0 0.0 0.00 0.00 0.00 56 1011.4
20260506163326 18 0.0 0.0 0.00 0.00 0.00 55 1011.2
20260506163306 18 0.0 0.0 0.00 0.00 0.00 55 1011.2
20260506162314 18 0.0 0.0 0.00 0.00 0.00 55 1011.2
20260506162240 18 0.0 0.0 0.00 0.00 0.00 55 1011.2
20260506161215 18 0.0 0.0 0.00 0.00 0.00 55 1011.0
20260506160150 18 0.0 0.0 0.00 0.00 0.00 55 1010.9
20260506155125 18 0.0 0.0 0.00 0.00 0.00 54 1010.8
20260506154141 18 0.0 0.0 0.00 0.00 0.00 55 1010.9
20260506154100 18 0.0 0.0 0.00 0.00 0.00 55 1010.9
20260506153126 18 0.0 0.0 0.00 0.00 0.00 54 1011.0
20260506153035 18 0.0 0.0 0.00 0.00 0.00 54 1011.0
20260506152457 18 0.0 0.0 0.00 0.00 0.00 54 1011.0
20260506152010 18 0.0 0.0 0.00 0.00 0.00 54 1011.0
20260506150957 18 0.0 0.0 0.00 0.00 0.00 55 1011.1
20260506150944 18 0.0 0.0 0.00 0.00 0.00 55 1011.1
20260506145957 18 0.0 0.0 0.00 0.00 0.00 55 1011.1
20260506145919 18 0.0 0.0 0.00 0.00 0.00 55 1011.1
20260506144957 18 0.0 0.0 0.00 0.00 0.00 55 1010.9
20260506144854 18 0.0 0.0 0.00 0.00 0.00 55 1010.9
20260506143957 18 0.0 0.0 0.00 0.00 0.00 55 1011.0
20260506143829 18 0.0 0.0 0.00 0.00 0.00 55 1011.0
20260506142855 18 0.0 0.0 0.00 0.00 0.00 55 1010.9
20260506142804 18 0.0 0.0 0.00 0.00 0.00 55 1010.9
20260506141957 18 0.0 0.0 0.00 0.00 0.00 55 1010.9
20260506141739 18 0.0 0.0 0.00 0.00 0.00 55 1010.9
20260506140813 18 0.0 0.0 0.00 0.00 0.00 55 1010.9
20260506140714 18 0.0 0.0 0.00 0.00 0.00 55 1010.9
20260506135648 18 0.0 0.0 0.00 0.00 0.00 55 1010.8
20260506134623 18 0.0 0.0 0.00 0.00 0.00 55 1010.9
20260506133813 18 0.0 0.0 0.00 0.00 0.00 55 1010.9
20260506133558 18 0.0 0.0 0.00 0.00 0.00 55 1010.9
20260506132541 18 0.0 0.0 0.00 0.00 0.00 55 1010.8
20260506132533 18 0.0 0.0 0.00 0.00 0.00 55 1010.8
20260506131508 18 0.0 0.0 0.00 0.00 0.00 55 1010.8
20260506130443 18 0.0 0.0 0.00 0.00 0.00 56 1010.8
20260506125452 18 0.0 0.0 0.00 0.00 0.00 56 1010.7
20260506125418 18 0.0 0.0 0.00 0.00 0.00 56 1010.7
20260506124352 18 0.0 0.0 0.00 0.00 0.00 56 1010.7
20260506123417 18 0.0 0.0 0.00 0.00 0.00 56 1010.6
20260506123327 18 0.0 0.0 0.00 0.00 0.00 56 1010.6
20260506122305 18 0.0 0.0 0.00 0.00 0.00 56 1010.5
20260506121305 18 0.0 0.0 0.00 0.00 0.00 56 1010.4
20260506121237 18 0.0 0.0 0.00 0.00 0.00 56 1010.4
20260506120233 18 0.0 0.0 0.00 0.00 0.00 56 1010.3
20260506120211 18 0.0 0.0 0.00 0.00 0.00 56 1010.3
20260506115804 18 0.0 0.0 0.00 0.00 0.00 57 1010.2
20260506115146 18 0.0 0.0 0.00 0.00 0.00 57 1010.2
20260506114121 18 0.0 0.0 0.00 0.00 0.00 57 1010.2
20260506113124 18 0.0 0.0 0.00 0.00 0.00 57 1010.2
20260506113056 18 0.0 0.0 0.00 0.00 0.00 57 1010.2
20260506112031 18 0.0 0.0 0.00 0.00 0.00 57 1010.3
20260506111006 18 0.0 0.0 0.00 0.00 0.00 57 1010.2
20260506110008 18 0.0 0.0 0.00 0.00 0.00 58 1010.2
20260506105940 18 0.0 0.0 0.00 0.00 0.00 58 1010.2
20260506105307 17 0.0 0.0 0.00 0.00 0.00 58 1010.3
20260506104915 17 0.0 0.0 0.00 0.00 0.00 58 1010.3
20260506104307 17 0.0 0.0 0.00 0.00 0.00 58 1010.3
20260506103850 17 0.0 0.0 0.00 0.00 0.00 58 1010.3
20260506102838 17 0.0 0.0 0.00 0.00 0.00 58 1010.3
20260506102825 17 0.0 0.0 0.00 0.00 0.00 58 1010.3
20260506101807 17 0.0 0.0 0.00 0.00 0.00 58 1010.4
20260506101800 17 0.0 0.0 0.00 0.00 0.00 58 1010.4
20260506100807 17 0.0 0.0 0.00 0.00 0.00 58 1010.4
20260506100735 17 0.0 0.0 0.00 0.00 0.00 58 1010.4
20260506095807 17 0.0 0.0 0.00 0.00 0.00 58 1010.4
20260506095710 17 0.0 0.0 0.00 0.00 0.00 58 1010.4
20260506094733 17 0.0 0.0 0.00 0.00 0.00 58 1010.3
20260506094644 17 0.0 0.0 0.00 0.00 0.00 58 1010.3
20260506093619 17 0.0 0.0 0.00 0.00 0.00 58 1010.2
20260506092807 17 0.0 0.0 0.00 0.00 0.00 58 1010.3
20260506092554 17 0.0 0.0 0.00 0.00 0.00 58 1010.3
20260506091625 17 0.0 0.0 0.00 0.00 0.00 58 1010.2
20260506091529 17 0.0 0.0 0.00 0.00 0.00 58 1010.2
20260506090807 17 0.0 0.0 0.00 0.00 0.00 58 1010.3
20260506090504 17 0.0 0.0 0.00 0.00 0.00 58 1010.3